Middletown, OH

9:51 AM EST on December 15, 2017 (GMT -0500)
Hook Field Municipal

Weather History for KMWO - January, 2014

Change the Weather History Date:

Wednesday, January 15, 2014

  Actual Average (KFFO) Record (KFFO)
Temperature  
Mean Temperature 26 °F -  
Max Temperature 32 °F 32 °F 57 °F (2007)
Min Temperature 20 °F 16 °F -5 °F (2009)
Degree Days  
Heating Degree Days 39    
Moisture  
Dew Point 15 °F    
Average Humidity 61    
Maximum Humidity 78    
Minimum Humidity 49    
Precipitation  
Precipitation 0.00 in - - ()
Sea Level Pressure  
Sea Level Pressure 30.04 in    
Wind  
Wind Speed 9 mph (West)    
Max Wind Speed 17 mph    
Max Gust Speed 24 mph    
Visibility 9 miles    
Events Snow    
Averages and records for this station are not official NWS values.
T = Trace of Precipitation, MM = Missing Value Source: NWS Daily Summary

Daily Weather History Graph

Daily Weather History Graph

Search for Another Location

Airport or City:

Trip Planner

Search our weather history database for the weather conditions in past years. The results will help you decide how hot, cold, wet, or windy it might be!

Date:

Astronomy

Jan. 15, 2014 Rise Set
Actual Time 7:56 AM EST 5:38 PM EST
Civil Twilight 7:26 AM EST 6:07 PM EST
Nautical Twilight 6:53 AM EST 6:40 PM EST
Astronomical Twilight 6:21 AM EST 7:13 PM EST
Moon 5:34 PM EST 7:11 AM EST
Length of Visible Light 10h 40m
Length of Day
9h 41m
Full, 100% of the Moon is Illuminated
Jan 15
Full
Jan 15
Full
Jan 24
Last Quarter
Jan 30
New
Feb 6
First Quarter

Hourly Weather History & Observations

Time (EST) Temp. Windchill Dew Point Humidity Pressure Visibility Wind Dir Wind Speed Gust Speed Precip Events Conditions
12:15 AM 32.5 °F 23.2 °F 18.5 °F 56% 29.95 in 10.0 mi WNW 12.7 mph 19.6 mph N/A   Clear
12:35 AM 32.5 °F 25.5 °F 19.2 °F 58% 29.94 in 10.0 mi West 8.1 mph - N/A   Mostly Cloudy
12:55 AM 32.2 °F 23.2 °F 18.9 °F 58% 29.95 in 10.0 mi West 11.5 mph 17.3 mph N/A   Scattered Clouds
1:15 AM 30.0 °F 23.2 °F 17.2 °F 59% 29.95 in 10.0 mi WSW 6.9 mph - N/A   Scattered Clouds
1:35 AM 28.2 °F 21.0 °F 16.3 °F 61% 29.95 in 10.0 mi West 6.9 mph - N/A   Clear
1:55 AM 27.9 °F 21.5 °F 15.6 °F 60% 29.95 in 10.0 mi West 5.8 mph - N/A   Clear
2:15 AM 27.9 °F 19.8 °F 15.8 °F 61% 29.95 in 10.0 mi West 8.1 mph - N/A   Clear
2:35 AM 27.9 °F 19.1 °F 15.8 °F 61% 29.96 in 10.0 mi WSW 9.2 mph - N/A   Scattered Clouds
2:55 AM 29.1 °F 19.4 °F 15.8 °F 58% 29.97 in 10.0 mi West 11.5 mph - N/A   Mostly Cloudy
3:15 AM 29.1 °F 23.0 °F 16.7 °F 60% 29.97 in 10.0 mi SW 5.8 mph - N/A   Overcast
3:35 AM 29.5 °F 18.4 °F 16.7 °F 59% 29.97 in 10.0 mi West 15.0 mph 20.7 mph N/A   Overcast
3:55 AM 30.2 °F 20.8 °F 16.0 °F 56% 29.97 in 10.0 mi WSW 11.5 mph - N/A   Overcast
4:15 AM 30.2 °F 20.2 °F 15.6 °F 55% 29.97 in 10.0 mi WSW 12.7 mph - N/A   Overcast
4:35 AM 30.2 °F 21.3 °F 14.7 °F 53% 29.97 in 10.0 mi WSW 10.4 mph 18.4 mph N/A   Overcast
4:55 AM 30.2 °F 21.9 °F 14.4 °F 52% 29.97 in 10.0 mi WSW 9.2 mph - N/A   Overcast
5:15 AM 30.2 °F 21.9 °F 14.5 °F 52% 29.98 in 10.0 mi WSW 9.2 mph - N/A   Overcast
5:35 AM 30.2 °F 18.5 °F 14.9 °F 53% 29.98 in 10.0 mi West 17.3 mph 24.2 mph N/A   Overcast
5:55 AM 29.3 °F 20.2 °F 12.2 °F 49% 29.98 in 10.0 mi West 10.4 mph 21.9 mph N/A   Overcast
6:15 AM 29.1 °F 22.1 °F 11.8 °F 49% 29.99 in 10.0 mi West 6.9 mph - N/A   Overcast
6:35 AM 29.1 °F 18.9 °F 12.9 °F 51% 29.99 in 10.0 mi West 12.7 mph 19.6 mph N/A   Overcast
6:55 AM 28.2 °F 18.9 °F 12.6 °F 52% 30.00 in 10.0 mi WNW 10.4 mph 16.1 mph N/A   Overcast
7:15 AM 27.9 °F 19.1 °F 14.9 °F 58% 30.01 in 10.0 mi West 9.2 mph 17.3 mph N/A Snow Light Snow
7:35 AM 27.9 °F 19.1 °F 16.3 °F 62% 30.01 in 10.0 mi West 9.2 mph - N/A   Overcast
7:55 AM 27.9 °F 21.5 °F 15.4 °F 60% 30.02 in 10.0 mi WNW 5.8 mph - N/A   Overcast
8:15 AM 27.9 °F 19.8 °F 15.3 °F 59% 30.03 in 10.0 mi West 8.1 mph - N/A   Overcast
8:35 AM 27.9 °F 19.1 °F 18.5 °F 68% 30.04 in 4.0 mi WNW 9.2 mph - N/A Snow Light Snow
8:55 AM 27.9 °F 19.1 °F 19.8 °F 72% 30.05 in 4.0 mi WNW 9.2 mph - N/A Snow Light Snow
9:15 AM 27.9 °F 21.5 °F 19.0 °F 69% 30.06 in 10.0 mi WNW 5.8 mph - N/A Snow Light Snow
9:35 AM 27.9 °F 21.5 °F 19.0 °F 69% 30.06 in 7.0 mi West 5.8 mph - N/A Snow Light Snow
9:55 AM 27.9 °F 20.6 °F 20.7 °F 74% 30.08 in 2.0 mi West 6.9 mph - N/A Snow Light Snow
10:15 AM 27.9 °F 19.1 °F 20.3 °F 73% 30.08 in 4.0 mi West 9.2 mph 16.1 mph N/A Snow Light Snow
10:35 AM 27.9 °F 21.5 °F 21.7 °F 78% 30.09 in 1.8 mi NW 5.8 mph - N/A Snow Light Snow
10:55 AM 27.9 °F 19.8 °F 21.0 °F 75% 30.09 in 2.0 mi NW 8.1 mph - N/A Snow Light Snow
11:15 AM 27.9 °F 19.8 °F 19.4 °F 71% 30.09 in 10.0 mi NW 8.1 mph - N/A Snow Light Snow
11:35 AM 27.9 °F 18.4 °F 18.0 °F 66% 30.09 in 10.0 mi WNW 10.4 mph - N/A   Overcast
11:55 AM 27.9 °F 19.1 °F 16.2 °F 62% 30.08 in 10.0 mi NW 9.2 mph - N/A   Overcast
12:15 PM 28.0 °F 20.0 °F 14.4 °F 57% 30.07 in 10.0 mi WNW 8.1 mph - N/A   Overcast
12:35 PM 27.9 °F 19.8 °F 14.4 °F 57% 30.06 in 10.0 mi NW 8.1 mph - N/A   Overcast
12:55 PM 27.9 °F 19.1 °F 13.8 °F 56% 30.05 in 10.0 mi WNW 9.2 mph - N/A   Overcast
1:15 PM 27.9 °F 18.4 °F 14.7 °F 58% 30.05 in 10.0 mi NW 10.4 mph - N/A Snow Light Snow
1:35 PM 27.9 °F 20.6 °F 14.7 °F 58% 30.05 in 10.0 mi West 6.9 mph - N/A Snow Light Snow
1:55 PM 28.6 °F 19.3 °F 13.6 °F 54% 30.05 in 10.0 mi West 10.4 mph 18.4 mph N/A   Overcast
2:15 PM 27.9 °F 18.4 °F 13.1 °F 54% 30.05 in 10.0 mi West 10.4 mph 17.3 mph N/A   Overcast
2:35 PM 27.9 °F 19.8 °F 13.6 °F 55% 30.05 in 10.0 mi WNW 8.1 mph 18.4 mph N/A Snow Light Snow
2:55 PM 27.9 °F 18.4 °F 15.3 °F 59% 30.05 in 10.0 mi WNW 10.4 mph - N/A Snow Light Snow
3:15 PM 27.9 °F 17.8 °F 14.9 °F 58% 30.06 in 10.0 mi West 11.5 mph - N/A Snow Light Snow
3:35 PM 27.9 °F 18.4 °F 16.0 °F 61% 30.06 in 10.0 mi West 10.4 mph - N/A Snow Light Snow
3:55 PM 27.9 °F 19.1 °F 12.9 °F 54% 30.07 in 10.0 mi West 9.2 mph - N/A   Overcast
4:15 PM 27.9 °F 20.6 °F 11.8 °F 51% - 10.0 mi WNW 6.9 mph - N/A   Overcast
4:35 PM 27.9 °F 19.8 °F 12.0 °F 52% 30.07 in 10.0 mi WNW 8.1 mph - N/A   Overcast
4:55 PM 27.9 °F 19.1 °F 13.1 °F 54% 30.08 in 10.0 mi NW 9.2 mph - N/A   Overcast
5:15 PM 27.9 °F 19.8 °F 13.5 °F 55% 30.09 in 10.0 mi WNW 8.1 mph - N/A   Overcast
5:35 PM 27.9 °F 19.1 °F 13.8 °F 56% 30.09 in 10.0 mi WNW 9.2 mph 17.3 mph N/A   Overcast
5:55 PM 27.9 °F 18.4 °F 14.9 °F 58% 30.09 in 10.0 mi WNW 10.4 mph - N/A   Overcast
6:15 PM 27.9 °F 18.4 °F 15.8 °F 61% 30.10 in 10.0 mi WNW 10.4 mph - N/A Snow Light Snow
6:35 PM 25.3 °F 15.3 °F 14.0 °F 62% 30.11 in 10.0 mi WNW 10.4 mph - N/A   Overcast
6:55 PM 25.3 °F 17.6 °F 14.0 °F 62% 30.11 in 10.0 mi WNW 6.9 mph - N/A   Overcast
7:15 PM 25.3 °F 18.5 °F 14.7 °F 64% 30.10 in 10.0 mi NW 5.8 mph - N/A   Mostly Cloudy
7:35 PM 22.8 °F 16.7 °F 13.1 °F 66% 30.10 in 10.0 mi NW 4.6 mph - N/A   Scattered Clouds
7:55 PM 21.4 °F 16.6 °F 12.4 °F 68% 30.11 in 10.0 mi West 3.5 mph - N/A   Clear
8:15 PM 21.6 °F - 11.8 °F 66% 30.10 in 10.0 mi Calm Calm - N/A   Clear
8:35 PM 21.6 °F 16.8 °F 11.7 °F 66% 30.10 in 10.0 mi WSW 3.5 mph - N/A   Clear
8:55 PM 21.2 °F 16.4 °F 13.3 °F 72% 30.11 in 10.0 mi West 3.5 mph - N/A   Clear
9:15 PM 20.3 °F - 13.1 °F 74% 30.11 in 10.0 mi Calm Calm - N/A   Scattered Clouds
9:35 PM 21.2 °F - 14.7 °F 76% 30.11 in 10.0 mi Calm Calm - N/A   Overcast
9:55 PM 22.8 °F 18.2 °F 14.4 °F 70% 30.10 in 10.0 mi West 3.5 mph - N/A   Overcast
10:15 PM 22.8 °F 18.2 °F 13.8 °F 68% 30.10 in 10.0 mi West 3.5 mph - N/A   Overcast
10:35 PM 22.8 °F 16.7 °F 13.8 °F 68% 30.10 in 10.0 mi WSW 4.6 mph - N/A   Overcast
10:55 PM 21.4 °F 13.8 °F 12.7 °F 69% 30.09 in 10.0 mi West 5.8 mph - N/A   Mostly Cloudy
11:15 PM 20.7 °F 14.2 °F 12.7 °F 71% 30.08 in 10.0 mi WSW 4.6 mph - N/A   Scattered Clouds
11:35 PM 20.3 °F 15.4 °F 13.1 °F 74% 30.07 in 10.0 mi WSW 3.5 mph - N/A   Mostly Cloudy
11:55 PM 20.3 °F - 13.1 °F 74% 30.07 in 10.0 mi Calm Calm - N/A   Scattered Clouds